| time (UTC) | temp F | wind direction | speed knots | gust knots | rain 1hr in | rain 24hr in | rain mn in | humidity % | barometer mb |
| 20260506002908 | 61 | 34 | 0.9 | 0.9 | 0.00 | 0.04 | 0.04 | 86 | 1004.3 |
| 20260506002404 | 61 | 39 | 0.9 | 0.9 | 0.00 | 0.04 | 0.04 | 86 | 1004.3 |
| 20260506001859 | 61 | 13 | 0.9 | 0.9 | 0.00 | 0.04 | 0.04 | 86 | 1004.4 |
| 20260506001356 | 61 | 330 | 1.7 | 1.7 | 0.00 | 0.04 | 0.04 | 85 | 1004.4 |
| 20260506000853 | 62 | 23 | 0.9 | 0.9 | 0.00 | 0.04 | 0.04 | 84 | 1004.4 |
| 20260506000353 | 62 | 21 | 0.9 | 0.9 | 0.00 | 0.04 | 0.04 | 84 | 1003.9 |
| 20260505235848 | 62 | 348 | 1.7 | 1.7 | 0.00 | 0.04 | 0.04 | 83 | 1004.1 |
| 20260505235345 | 62 | 1 | 0.9 | 1.7 | 0.00 | 0.04 | 0.04 | 82 | 1003.9 |
| 20260505234842 | 62 | 47 | 0.9 | 0.9 | 0.00 | 0.04 | 0.04 | 83 | 1003.6 |
| 20260505234340 | 62 | 47 | 0.0 | 0.0 | 0.00 | 0.04 | 0.04 | 82 | 1003.7 |
| 20260505233836 | 62 | 1 | 0.9 | 1.7 | 0.00 | 0.04 | 0.04 | 82 | 1003.6 |
| 20260505233334 | 62 | 29 | 0.9 | 0.9 | 0.00 | 0.04 | 0.04 | 82 | 1003.9 |
| 20260505232832 | 62 | 356 | 0.9 | 1.7 | 0.00 | 0.04 | 0.04 | 82 | 1003.6 |
| 20260505232330 | 62 | 5 | 0.9 | 1.7 | 0.00 | 0.04 | 0.04 | 81 | 1003.4 |
| 20260505231825 | 62 | 39 | 0.9 | 0.9 | 0.00 | 0.04 | 0.04 | 81 | 1003.6 |
| 20260505231324 | 62 | 309 | 1.7 | 1.7 | 0.00 | 0.04 | 0.04 | 82 | 1003.5 |
| 20260505230822 | 62 | 332 | 1.7 | 1.7 | 0.00 | 0.04 | 0.04 | 82 | 1003.7 |
| 20260505230318 | 62 | 331 | 1.7 | 1.7 | 0.00 | 0.04 | 0.04 | 82 | 1003.3 |
| 20260505225815 | 62 | 355 | 1.7 | 1.7 | 0.00 | 0.04 | 0.04 | 82 | 1003.3 |
| 20260505225312 | 62 | 328 | 1.7 | 1.7 | 0.00 | 0.04 | 0.04 | 83 | 1003.4 |
| 20260505224807 | 62 | 17 | 1.7 | 1.7 | 0.00 | 0.04 | 0.04 | 85 | 1003.2 |
| 20260505224306 | 62 | 57 | 0.9 | 0.9 | 0.00 | 0.04 | 0.04 | 87 | 1003.3 |
| 20260505223802 | 61 | 9 | 0.9 | 1.7 | 0.00 | 0.04 | 0.04 | 90 | 1003.1 |
| 20260505223259 | 61 | 33 | 0.9 | 0.9 | 0.00 | 0.04 | 0.04 | 90 | 1003.1 |
| 20260505222755 | 61 | 334 | 2.6 | 2.6 | 0.00 | 0.04 | 0.04 | 90 | 1003.3 |
| 20260505222251 | 61 | 359 | 0.9 | 0.9 | 0.00 | 0.04 | 0.04 | 90 | 1003.7 |
| 20260505221748 | 61 | 25 | 0.9 | 0.9 | 0.00 | 0.04 | 0.04 | 89 | 1003.6 |
| 20260505221245 | 62 | 63 | 1.7 | 1.7 | 0.00 | 0.04 | 0.04 | 88 | 1003.7 |
| 20260505220742 | 62 | 78 | 1.7 | 1.7 | 0.00 | 0.04 | 0.04 | 87 | 1004.0 |
| 20260505220239 | 62 | 41 | 0.9 | 0.9 | 0.00 | 0.04 | 0.04 | 86 | 1003.7 |
| 20260505215738 | 62 | 352 | 1.7 | 1.7 | 0.00 | 0.04 | 0.04 | 85 | 1003.7 |
| 20260505215235 | 62 | 293 | 2.6 | 2.6 | 0.07 | 0.04 | 0.04 | 86 | 1003.8 |
| 20260505214733 | 62 | 298 | 3.5 | 4.3 | 0.07 | 0.04 | 0.04 | 87 | 1003.8 |
| 20260505214230 | 62 | 331 | 4.3 | 4.3 | 0.00 | 0.03 | 0.03 | 87 | 1003.8 |
| 20260505213727 | 61 | 290 | 2.6 | 4.3 | 0.00 | 0.03 | 0.03 | 88 | 1003.8 |
| 20260505213224 | 61 | 306 | 2.6 | 4.3 | 0.00 | 0.03 | 0.03 | 90 | 1003.8 |
| 20260505212720 | 61 | 333 | 2.6 | 2.6 | 0.00 | 0.03 | 0.03 | 89 | 1003.7 |
| 20260505212218 | 62 | 318 | 3.5 | 4.3 | 0.00 | 0.03 | 0.03 | 85 | 1004.1 |
| 20260505211714 | 62 | 353 | 2.6 | 4.3 | 0.00 | 0.03 | 0.03 | 83 | 1003.9 |
| 20260505211212 | 62 | 295 | 4.3 | 5.2 | 0.00 | 0.03 | 0.03 | 83 | 1003.4 |
| 20260505210708 | 62 | 300 | 4.3 | 5.2 | 0.00 | 0.03 | 0.03 | 81 | 1002.9 |
| 20260505210205 | 63 | 339 | 2.6 | 4.3 | 0.00 | 0.03 | 0.03 | 79 | 1002.2 |
| 20260505205703 | 64 | 317 | 6.1 | 7.0 | 0.00 | 0.03 | 0.03 | 76 | 1002.3 |
| 20260505205201 | 66 | 356 | 4.3 | 6.1 | 0.00 | 0.03 | 0.03 | 71 | 1001.8 |
| 20260505204657 | 70 | 356 | 7.0 | 8.7 | 0.00 | 0.03 | 0.03 | 63 | 1002.0 |
| 20260505204155 | 75 | 344 | 2.6 | 2.6 | 0.00 | 0.03 | 0.03 | 46 | 1001.8 |
| 20260505203652 | 75 | 332 | 2.6 | 2.6 | 0.00 | 0.03 | 0.03 | 45 | 1001.4 |
| 20260505203148 | 76 | 321 | 2.6 | 2.6 | 0.00 | 0.03 | 0.03 | 44 | 1001.1 |
| 20260505202644 | 76 | 355 | 3.5 | 4.3 | 0.00 | 0.03 | 0.03 | 44 | 1001.0 |
| 20260505202140 | 78 | 320 | 2.6 | 2.6 | 0.00 | 0.03 | 0.03 | 44 | 1001.0 |
| 20260505201637 | 77 | 337 | 2.6 | 2.6 | 0.00 | 0.03 | 0.03 | 45 | 1001.0 |
| 20260505201135 | 76 | 249 | 0.0 | 0.9 | 0.00 | 0.03 | 0.03 | 46 | 1000.9 |
| 20260505200633 | 75 | 318 | 1.7 | 2.6 | 0.00 | 0.03 | 0.03 | 46 | 1000.8 |
| 20260505200129 | 75 | 45 | 1.7 | 1.7 | 0.00 | 0.03 | 0.03 | 46 | 1000.8 |
| 20260505195625 | 74 | 99 | 0.0 | 0.9 | 0.00 | 0.03 | 0.03 | 47 | 1000.9 |
| 20260505195123 | 74 | 351 | 2.6 | 4.3 | 0.00 | 0.03 | 0.03 | 46 | 1001.2 |
| 20260505194620 | 74 | 54 | 2.6 | 2.6 | 0.00 | 0.03 | 0.03 | 46 | 1001.0 |
| 20260505194116 | 74 | 357 | 2.6 | 2.6 | 0.00 | 0.03 | 0.03 | 45 | 1000.9 |
| 20260505193613 | 74 | 309 | 2.6 | 2.6 | 0.00 | 0.03 | 0.03 | 44 | 1001.2 |
| 20260505193110 | 76 | 25 | 1.7 | 2.6 | 0.00 | 0.03 | 0.03 | 42 | 1001.3 |
| 20260505192609 | 77 | 353 | 4.3 | 8.7 | 0.00 | 0.03 | 0.03 | 39 | 1001.1 |
| 20260505192106 | 77 | 143 | 2.6 | 4.3 | 0.00 | 0.03 | 0.03 | 39 | 1001.2 |
| 20260505191604 | 78 | 212 | 6.1 | 9.6 | 0.00 | 0.03 | 0.03 | 37 | 1001.3 |
| 20260505191101 | 79 | 241 | 5.2 | 6.1 | 0.00 | 0.03 | 0.03 | 36 | 1001.1 |
| 20260505190556 | 79 | 219 | 4.3 | 5.2 | 0.00 | 0.03 | 0.03 | 37 | 1000.8 |
| 20260505190052 | 78 | 309 | 2.6 | 4.3 | 0.00 | 0.03 | 0.03 | 39 | 1001.2 |
| 20260505185549 | 79 | 291 | 4.3 | 5.2 | 0.00 | 0.03 | 0.03 | 37 | 1001.0 |
| 20260505185045 | 81 | 228 | 7.8 | 12.2 | 0.00 | 0.03 | 0.03 | 35 | 1000.9 |
| 20260505184542 | 81 | 205 | 3.5 | 4.3 | 0.00 | 0.03 | 0.03 | 38 | 1001.2 |
| 20260505184039 | 81 | 259 | 4.3 | 6.1 | 0.00 | 0.03 | 0.03 | 36 | 1000.9 |
| 20260505183536 | 81 | 256 | 7.0 | 11.3 | 0.00 | 0.03 | 0.03 | 35 | 1001.1 |
| 20260505183033 | 80 | 236 | 0.9 | 1.7 | 0.00 | 0.03 | 0.03 | 36 | 1001.2 |
| 20260505182529 | 78 | 205 | 3.5 | 4.3 | 0.00 | 0.03 | 0.03 | 37 | 1001.3 |
| 20260505182026 | 79 | 186 | 5.2 | 7.0 | 0.00 | 0.03 | 0.03 | 37 | 1001.1 |
| 20260505181523 | 79 | 351 | 4.3 | 6.1 | 0.00 | 0.03 | 0.03 | 37 | 1001.3 |
| 20260505181021 | 80 | 282 | 2.6 | 4.3 | 0.00 | 0.03 | 0.03 | 36 | 1001.4 |
| 20260505180516 | 79 | 238 | 2.6 | 2.6 | 0.00 | 0.03 | 0.03 | 41 | 1001.5 |
| 20260505180015 | 80 | 77 | 2.6 | 2.6 | 0.00 | 0.03 | 0.03 | 39 | 1001.5 |
| 20260505175509 | 80 | 234 | 4.3 | 7.0 | 0.00 | 0.03 | 0.03 | 38 | 1001.5 |
| 20260505175006 | 80 | 175 | 6.1 | 9.6 | 0.00 | 0.03 | 0.03 | 37 | 1001.5 |
| 20260505174503 | 80 | 246 | 2.6 | 4.3 | 0.00 | 0.03 | 0.03 | 38 | 1001.5 |
| 20260505173959 | 81 | 239 | 3.5 | 5.2 | 0.00 | 0.03 | 0.03 | 41 | 1001.5 |
| 20260505173455 | 81 | 214 | 4.3 | 6.1 | 0.00 | 0.03 | 0.03 | 36 | 1001.3 |
| 20260505172952 | 81 | 262 | 3.5 | 5.2 | 0.00 | 0.03 | 0.03 | 37 | 1001.6 |
| 20260505172451 | 81 | 205 | 5.2 | 7.8 | 0.00 | 0.03 | 0.03 | 37 | 1001.7 |
| 20260505171950 | 81 | 264 | 2.6 | 4.3 | 0.00 | 0.03 | 0.03 | 36 | 1001.7 |
| 20260505171447 | 81 | 61 | 3.5 | 4.3 | 0.00 | 0.03 | 0.03 | 38 | 1001.9 |
| 20260505170944 | 79 | 264 | 5.2 | 7.0 | 0.00 | 0.03 | 0.03 | 39 | 1001.5 |
| 20260505170441 | 80 | 354 | 4.3 | 6.1 | 0.00 | 0.03 | 0.03 | 38 | 1001.9 |
| 20260505165936 | 82 | 166 | 3.5 | 7.0 | 0.00 | 0.03 | 0.03 | 36 | 1001.9 |
| 20260505165432 | 80 | 340 | 2.6 | 2.6 | 0.00 | 0.03 | 0.03 | 39 | 1001.9 |
| 20260505164928 | 81 | 218 | 4.3 | 7.0 | 0.00 | 0.03 | 0.03 | 39 | 1002.0 |
| 20260505164425 | 81 | 223 | 5.2 | 6.1 | 0.00 | 0.03 | 0.03 | 38 | 1001.9 |
| 20260505163922 | 81 | 204 | 7.0 | 9.6 | 0.00 | 0.03 | 0.03 | 39 | 1002.1 |
| 20260505163421 | 81 | 72 | 4.3 | 8.7 | 0.00 | 0.03 | 0.03 | 39 | 1002.3 |
| 20260505162920 | 81 | 148 | 3.5 | 5.2 | 0.00 | 0.03 | 0.03 | 38 | 1002.3 |
| 20260505162415 | 81 | 321 | 6.1 | 9.6 | 0.00 | 0.03 | 0.03 | 38 | 1002.2 |
| 20260505161912 | 81 | 238 | 0.9 | 1.7 | 0.00 | 0.03 | 0.03 | 39 | 1002.3 |
| 20260505161409 | 79 | 40 | 1.7 | 1.7 | 0.00 | 0.03 | 0.03 | 41 | 1002.2 |
| 20260505160907 | 78 | 204 | 5.2 | 7.0 | 0.00 | 0.03 | 0.03 | 42 | 1002.5 |
| 20260505160405 | 80 | 212 | 0.9 | 0.9 | 0.00 | 0.03 | 0.03 | 42 | 1002.5 |
| 20260505153343 | 78 | 175 | 3.5 | 5.2 | 0.00 | 0.03 | 0.03 | 43 | 1003.3 |
| 20260505152841 | 77 | 225 | 1.7 | 2.6 | 0.00 | 0.03 | 0.03 | 46 | 1003.2 |
| 20260505152338 | 78 | 284 | 3.5 | 6.1 | 0.00 | 0.03 | 0.03 | 45 | 1003.4 |
| 20260505151837 | 78 | 187 | 3.5 | 4.3 | 0.00 | 0.03 | 0.03 | 44 | 1002.9 |
| 20260505151334 | 77 | 55 | 3.5 | 6.1 | 0.00 | 0.03 | 0.03 | 45 | 1003.2 |
| 20260505150831 | 77 | 246 | 4.3 | 7.0 | 0.00 | 0.03 | 0.03 | 47 | 1003.1 |
| 20260505150323 | 78 | 77 | 3.5 | 5.2 | 0.00 | 0.03 | 0.03 | 48 | 1003.1 |
| 20260505140247 | 68 | 237 | 1.7 | 2.6 | 0.00 | 0.03 | 0.03 | 58 | 1003.5 |
| 20260505130211 | 67 | 77 | 0.9 | 0.9 | 0.00 | 0.03 | 0.03 | 61 | 1004.3 |
| 20260505124701 | 68 | 55 | 0.0 | 0.9 | 0.00 | 0.03 | 0.03 | 61 | 1004.3 |
| 20260505124157 | 67 | 220 | 0.9 | 1.7 | 0.00 | 0.03 | 0.03 | 62 | 1004.0 |
| 20260505123653 | 68 | 47 | 2.6 | 2.6 | 0.00 | 0.03 | 0.03 | 61 | 1004.3 |
| 20260505123150 | 68 | 92 | 1.7 | 2.6 | 0.00 | 0.03 | 0.03 | 62 | 1004.2 |
| 20260505122647 | 67 | 175 | 0.9 | 0.9 | 0.00 | 0.03 | 0.03 | 62 | 1004.2 |
| 20260505122144 | 67 | 219 | 4.3 | 6.1 | 0.00 | 0.03 | 0.03 | 63 | 1004.4 |
| 20260505121641 | 66 | 84 | 1.7 | 1.7 | 0.00 | 0.03 | 0.03 | 65 | 1004.4 |
| 20260505121137 | 66 | 104 | 0.9 | 1.7 | 0.00 | 0.03 | 0.03 | 65 | 1004.4 |
| 20260505120633 | 65 | 40 | 0.9 | 1.7 | 0.00 | 0.03 | 0.03 | 67 | 1004.4 |
| 20260505120129 | 64 | 207 | 0.9 | 2.6 | 0.00 | 0.03 | 0.03 | 72 | 1004.5 |
| 20260505115624 | 63 | 41 | 2.6 | 4.3 | 0.00 | 0.03 | 0.03 | 69 | 1004.3 |
| 20260505115122 | 62 | 209 | 0.9 | 1.7 | 0.00 | 0.03 | 0.03 | 75 | 1004.4 |
| 20260505114618 | 62 | 85 | 0.9 | 0.9 | 0.00 | 0.03 | 0.03 | 74 | 1004.4 |
| 20260505114115 | 61 | 84 | 0.9 | 0.9 | 0.00 | 0.03 | 0.03 | 76 | 1004.6 |
| 20260505113611 | 60 | 62 | 0.9 | 0.9 | 0.00 | 0.03 | 0.03 | 80 | 1004.3 |
| 20260505113108 | 59 | 86 | 0.0 | 0.0 | 0.00 | 0.03 | 0.03 | 82 | 1004.5 |
| 20260505112604 | 57 | 63 | 0.0 | 0.0 | 0.00 | 0.03 | 0.03 | 88 | 1004.5 |
| 20260505112102 | 57 | 83 | 0.0 | 0.0 | 0.00 | 0.03 | 0.03 | 91 | 1004.4 |
| 20260505111556 | 56 | 63 | 0.0 | 0.0 | 0.00 | 0.03 | 0.03 | 92 | 1004.4 |
| 20260505111052 | 56 | 69 | 0.0 | 0.0 | 0.00 | 0.03 | 0.03 | 92 | 1004.2 |
| 20260505110549 | 55 | 53 | 0.0 | 0.0 | 0.00 | 0.03 | 0.03 | 94 | 1004.1 |
| 20260505102021 | 53 | 46 | 0.9 | 0.9 | 0.00 | 0.03 | 0.03 | 97 | 1003.8 |
| 20260505101520 | 54 | 52 | 0.0 | 0.9 | 0.00 | 0.03 | 0.03 | 97 | 1003.8 |
| 20260505101016 | 53 | 48 | 0.9 | 0.9 | 0.00 | 0.03 | 0.03 | 96 | 1003.7 |
| 20260505100513 | 54 | 58 | 0.0 | 0.0 | 0.00 | 0.03 | 0.03 | 95 | 1003.6 |
| 20260505100010 | 54 | 15 | 0.9 | 0.9 | 0.00 | 0.03 | 0.03 | 92 | 1003.6 |
| 20260505095506 | 55 | 94 | 0.0 | 0.0 | 0.17 | 0.03 | 0.03 | 90 | 1003.2 |
| 20260505095002 | 57 | 2 | 1.7 | 1.7 | 0.17 | 0.03 | 0.03 | 82 | 1003.5 |
| 20260505094459 | 58 | 133 | 0.9 | 1.7 | 0.05 | 0.01 | 0.01 | 75 | 1004.0 |
| 20260505093955 | 58 | 217 | 2.6 | 2.6 | 0.00 | 0.00 | 0.00 | 71 | 1004.0 |
| 20260505093452 | 58 | 63 | 0.0 | 0.9 | 0.00 | 0.00 | 0.00 | 70 | 1004.1 |
| 20260505092949 | 57 | 124 | 0.9 | 0.9 | 0.00 | 0.00 | 0.00 | 70 | 1004.0 |
| 20260505092446 | 55 | 58 | 0.0 | 0.0 | 0.00 | 0.00 | 0.00 | 72 | 1003.9 |
| 20260505091944 | 55 | 3 | 1.7 | 1.7 | 0.00 | 0.00 | 0.00 | 73 | 1003.7 |
| 20260505091441 | 56 | 82 | 0.0 | 0.0 | 0.00 | 0.00 | 0.00 | 71 | 1003.5 |
| 20260505090939 | 55 | 55 | 0.0 | 0.0 | 0.00 | 0.00 | 0.00 | 71 | 1003.6 |
| 20260505090437 | 55 | 54 | 0.0 | 0.9 | 0.00 | 0.00 | 0.00 | 71 | 1003.6 |
| 20260505085934 | 56 | 57 | 0.0 | 0.0 | 0.00 | 0.00 | 0.00 | 70 | 1003.4 |
| 20260505085432 | 56 | 60 | 0.0 | 0.0 | 0.00 | 0.00 | 0.00 | 69 | 1003.4 |
| 20260505084930 | 54 | 52 | 0.0 | 0.9 | 0.00 | 0.00 | 0.00 | 73 | 1003.4 |
| 20260505084428 | 54 | 50 | 0.0 | 0.0 | 0.00 | 0.00 | 0.00 | 74 | 1003.4 |
| 20260505083926 | 54 | 50 | 0.0 | 0.0 | 0.00 | 0.00 | 0.00 | 74 | 1003.5 |
| 20260505083423 | 53 | 45 | 0.9 | 0.9 | 0.00 | 0.00 | 0.00 | 76 | 1003.5 |
| 20260505082919 | 52 | 50 | 0.0 | 0.0 | 0.00 | 0.00 | 0.00 | 82 | 1003.6 |
| 20260505082415 | 51 | 34 | 0.9 | 0.9 | 0.00 | 0.00 | 0.00 | 82 | 1003.5 |
| 20260505081912 | 51 | 31 | 0.9 | 0.9 | 0.00 | 0.00 | 0.00 | 81 | 1003.6 |
| 20260505081409 | 52 | 32 | 0.0 | 0.9 | 0.00 | 0.00 | 0.00 | 81 | 1003.7 |
| 20260505080905 | 52 | 34 | 0.0 | 0.9 | 0.00 | 0.00 | 0.00 | 79 | 1003.8 |
| 20260505080401 | 51 | 30 | 0.9 | 0.9 | 0.00 | 0.00 | 0.00 | 79 | 1003.8 |
| 20260505075857 | 51 | 32 | 0.0 | 0.9 | 0.00 | 0.00 | 0.00 | 82 | 1003.5 |
| 20260505075354 | 51 | 27 | 0.9 | 0.9 | 0.00 | 0.00 | 0.00 | 83 | 1003.8 |
| 20260505074851 | 51 | 46 | 0.9 | 0.9 | 0.00 | 0.00 | 0.00 | 83 | 1003.8 |
| 20260505074348 | 50 | 30 | 0.9 | 0.9 | 0.00 | 0.00 | 0.00 | 84 | 1003.7 |
| 20260505073846 | 50 | 19 | 0.9 | 0.9 | 0.00 | 0.00 | 0.00 | 84 | 1003.6 |
| 20260505073344 | 51 | 25 | 0.9 | 0.9 | 0.00 | 0.00 | 0.00 | 84 | 1003.5 |
| 20260505072840 | 50 | 52 | 0.0 | 0.9 | 0.00 | 0.00 | 0.00 | 83 | 1003.7 |
| 20260505072336 | 51 | 66 | 0.0 | 0.0 | 0.00 | 0.00 | 0.00 | 82 | 1003.5 |
| 20260505071832 | 51 | 51 | 0.0 | 0.9 | 0.00 | 0.00 | 0.00 | 80 | 1003.5 |
| 20260505071329 | 51 | 67 | 0.9 | 0.9 | 0.00 | 0.00 | 0.00 | 80 | 1003.7 |
| 20260505070828 | 50 | 338 | 1.7 | 1.7 | 0.00 | 0.00 | 0.00 | 81 | 1003.5 |
| 20260505070323 | 50 | 30 | 0.9 | 0.9 | 0.00 | 0.00 | 0.00 | 80 | 1003.4 |
| 20260505065819 | 50 | 93 | 0.0 | 0.9 | 0.00 | 0.00 | 0.00 | 80 | 1003.8 |
| 20260505065316 | 50 | 38 | 0.9 | 0.9 | 0.00 | 0.00 | 0.00 | 80 | 1003.6 |
| 20260505064813 | 51 | 25 | 0.9 | 0.9 | 0.00 | 0.00 | 0.00 | 80 | 1003.5 |
| 20260505064310 | 51 | 39 | 0.9 | 0.9 | 0.00 | 0.00 | 0.00 | 80 | 1003.6 |
| 20260505063808 | 52 | 358 | 0.9 | 1.7 | 0.00 | 0.00 | 0.00 | 79 | 1003.7 |
| 20260505063304 | 52 | 25 | 0.9 | 0.9 | 0.00 | 0.00 | 0.00 | 76 | 1003.7 |
| 20260505062800 | 53 | 100 | 0.9 | 0.9 | 0.00 | 0.00 | 0.00 | 71 | 1003.8 |
| 20260505062258 | 53 | 45 | 0.0 | 0.0 | 0.00 | 0.00 | 0.00 | 76 | 1003.7 |
| 20260505061755 | 53 | 161 | 1.7 | 1.7 | 0.00 | 0.00 | 0.00 | 73 | 1003.6 |
| 20260505061253 | 52 | 21 | 0.9 | 1.7 | 0.00 | 0.00 | 0.00 | 76 | 1003.7 |
| 20260505060750 | 52 | 78 | 0.0 | 0.9 | 0.00 | 0.00 | 0.00 | 75 | 1003.9 |
| 20260505060247 | 53 | 64 | 0.0 | 0.0 | 0.00 | 0.00 | 0.00 | 70 | 1003.8 |
| 20260505055742 | 52 | 38 | 0.0 | 0.9 | 0.00 | 0.00 | 0.00 | 78 | 1003.9 |
| 20260505055239 | 51 | 54 | 0.9 | 0.9 | 0.00 | 0.00 | 0.00 | 76 | 1003.8 |
| 20260505054736 | 51 | 56 | 0.9 | 0.9 | 0.00 | 0.00 | 0.00 | 83 | 1003.7 |
| 20260505054234 | 51 | 47 | 0.9 | 0.9 | 0.00 | 0.00 | 0.00 | 82 | 1003.8 |
| 20260505053732 | 52 | 47 | 0.9 | 0.9 | 0.00 | 0.00 | 0.00 | 80 | 1003.9 |
| 20260505053228 | 52 | 39 | 0.0 | 0.0 | 0.00 | 0.00 | 0.00 | 80 | 1004.0 |
| 20260505052725 | 53 | 46 | 0.9 | 0.9 | 0.00 | 0.00 | 0.00 | 71 | 1004.0 |
| 20260505052222 | 53 | 58 | 0.0 | 0.0 | 0.00 | 0.00 | 0.00 | 73 | 1004.0 |
| 20260505051719 | 54 | 39 | 0.0 | 0.0 | 0.00 | 0.00 | 0.00 | 74 | 1004.2 |
| 20260505051217 | 54 | 39 | 0.0 | 0.0 | 0.00 | 0.00 | 0.00 | 74 | 1004.1 |
| 20260505050715 | 55 | 38 | 0.0 | 0.9 | 0.00 | 0.00 | 0.00 | 69 | 1004.0 |
| 20260505050213 | 56 | 23 | 0.9 | 0.9 | 0.00 | 0.00 | 0.00 | 69 | 1004.1 |
| 20260505041642 | 52 | 52 | 0.0 | 0.0 | 0.00 | 0.00 | 0.00 | 74 | 1004.1 |
| 20260505041140 | 53 | 341 | 1.7 | 1.7 | 0.00 | 0.00 | 0.00 | 75 | 1004.1 |
| 20260505040637 | 53 | 17 | 0.9 | 0.9 | 0.00 | 0.00 | 0.00 | 73 | 1004.0 |
| 20260505040134 | 53 | 16 | 0.0 | 0.9 | 0.00 | 0.00 | 0.00 | 74 | 1004.1 |
| 20260505035630 | 53 | 28 | 0.9 | 0.9 | 0.00 | 0.00 | 0.00 | 73 | 1004.0 |
| 20260505035126 | 54 | 29 | 0.9 | 0.9 | 0.00 | 0.00 | 0.00 | 72 | 1004.1 |
| 20260505034623 | 53 | 7 | 0.9 | 1.7 | 0.00 | 0.00 | 0.00 | 75 | 1004.0 |
| 20260505034120 | 53 | 45 | 0.9 | 0.9 | 0.00 | 0.00 | 0.00 | 72 | 1004.0 |
| 20260505033617 | 54 | 45 | 0.0 | 0.0 | 0.00 | 0.00 | 0.00 | 71 | 1004.1 |
| 20260505033116 | 54 | 33 | 0.9 | 0.9 | 0.00 | 0.00 | 0.00 | 68 | 1003.9 |
| 20260505032613 | 54 | 45 | 0.9 | 0.9 | 0.00 | 0.00 | 0.00 | 67 | 1003.9 |
| 20260505032109 | 53 | 45 | 0.9 | 0.9 | 0.00 | 0.00 | 0.00 | 68 | 1003.9 |
| 20260505031607 | 54 | 45 | 0.0 | 0.9 | 0.00 | 0.00 | 0.00 | 69 | 1004.1 |
| 20260505031103 | 54 | 347 | 1.7 | 1.7 | 0.00 | 0.00 | 0.00 | 67 | 1004.0 |
| 20260505030600 | 53 | 42 | 0.9 | 0.9 | 0.00 | 0.00 | 0.00 | 70 | 1004.0 |
| 20260505030055 | 53 | 46 | 0.0 | 0.0 | 0.00 | 0.00 | 0.00 | 74 | 1004.0 |
| 20260505025551 | 52 | 39 | 0.9 | 0.9 | 0.00 | 0.00 | 0.00 | 74 | 1004.1 |
| 20260505025051 | 52 | 19 | 0.9 | 0.9 | 0.00 | 0.00 | 0.00 | 75 | 1004.0 |
| 20260505024547 | 52 | 17 | 0.9 | 0.9 | 0.00 | 0.00 | 0.00 | 75 | 1004.2 |
| 20260505024044 | 52 | 6 | 1.7 | 1.7 | 0.00 | 0.00 | 0.00 | 75 | 1004.0 |
| 20260505023541 | 53 | 32 | 0.9 | 0.9 | 0.00 | 0.00 | 0.00 | 75 | 1004.0 |
| 20260505023039 | 53 | 13 | 0.9 | 0.9 | 0.00 | 0.00 | 0.00 | 75 | 1004.1 |
| 20260505022536 | 53 | 39 | 0.0 | 0.9 | 0.00 | 0.00 | 0.00 | 74 | 1004.2 |
| 20260505022033 | 53 | 34 | 0.9 | 0.9 | 0.00 | 0.00 | 0.00 | 78 | 1004.1 |
| 20260505021530 | 54 | 42 | 0.0 | 0.9 | 0.00 | 0.00 | 0.00 | 77 | 1004.0 |
| 20260505021026 | 54 | 51 | 0.9 | 0.9 | 0.00 | 0.00 | 0.00 | 72 | 1004.1 |
| 20260505020520 | 54 | 51 | 0.0 | 0.9 | 0.00 | 0.00 | 0.00 | 73 | 1004.4 |
| 20260505020018 | 54 | 47 | 0.0 | 0.9 | 0.00 | 0.00 | 0.00 | 71 | 1004.1 |
| 20260505015515 | 54 | 53 | 0.0 | 0.0 | 0.00 | 0.00 | 0.00 | 68 | 1004.1 |
| 20260505015012 | 54 | 47 | 0.9 | 0.9 | 0.00 | 0.00 | 0.00 | 68 | 1004.3 |
| 20260505014509 | 54 | 52 | 0.0 | 0.0 | 0.00 | 0.00 | 0.00 | 70 | 1004.2 |
| 20260505014006 | 54 | 41 | 0.0 | 0.9 | 0.00 | 0.00 | 0.00 | 72 | 1004.2 |
| 20260505013503 | 54 | 38 | 0.9 | 0.9 | 0.00 | 0.00 | 0.00 | 74 | 1004.2 |
| 20260505013000 | 55 | 53 | 0.0 | 0.0 | 0.00 | 0.00 | 0.00 | 72 | 1004.0 |
| 20260505012458 | 55 | 47 | 0.9 | 0.9 | 0.00 | 0.00 | 0.00 | 71 | 1004.1 |
| 20260505011955 | 55 | 36 | 0.9 | 0.9 | 0.00 | 0.00 | 0.00 | 72 | 1004.3 |
| 20260505011450 | 56 | 31 | 0.9 | 0.9 | 0.00 | 0.00 | 0.00 | 70 | 1004.0 |
| 20260505010948 | 56 | 51 | 0.0 | 0.0 | 0.00 | 0.00 | 0.00 | 69 | 1004.0 |
| 20260505010443 | 57 | 43 | 0.0 | 0.9 | 0.00 | 0.00 | 0.00 | 66 | 1004.0 |
| 20260505005940 | 57 | 47 | 0.0 | 0.9 | 0.00 | 0.00 | 0.00 | 68 | 1003.8 |
| 20260505005436 | 57 | 49 | 0.9 | 0.9 | 0.00 | 0.00 | 0.00 | 68 | 1004.0 |
| 20260505004934 | 57 | 57 | 0.0 | 0.9 | 0.00 | 0.00 | 0.00 | 65 | 1003.6 |
| 20260505004431 | 57 | 57 | 0.0 | 0.0 | 0.00 | 0.00 | 0.00 | 63 | 1003.8 |
| 20260505003928 | 58 | 57 | 0.0 | 0.0 | 0.00 | 0.00 | 0.00 | 62 | 1003.7 |
| 20260505003425 | 59 | 58 | 0.9 | 0.9 | 0.00 | 0.00 | 0.00 | 62 | 1003.6 |